W4SNA-2 Weather Reports


time (UTC)temp
F
wind
direction
speed
knots
gust
knots
rain 1hr
in
rain 24hr
in
rain mn
in
humidity
%
barometer
mb
20260507055319 61 197 5.2 11.3 0.01 0.12 0.11 100 1013.6
20260507054820 61 220 1.7 11.3 0.01 0.12 0.11 100 1014.0
20260507054318 61 240 0.9 7.8 0.01 0.12 0.11 100 1014.1
20260507053819 61 256 0.9 7.0 0.01 0.12 0.11 99 1014.0
20260507053319 61 274 0.9 5.2 0.01 0.12 0.11 100 1014.1
20260507052818 61 0 0.0 7.0 0.01 0.12 0.11 99 1014.4
20260507052318 61 231 0.9 10.4 0.01 0.12 0.11 99 1014.5
20260507051818 61 236 1.7 10.4 0.01 0.12 0.11 99 1014.7
20260507051318 61 201 0.9 7.0 0.01 0.12 0.11 100 1014.8
20260507050818 61 192 0.9 5.2 0.01 0.12 0.11 100 1014.7
20260507050319 61 0 0.0 5.2 0.01 0.12 0.11 100 1014.8
20260507045819 61 197 0.9 5.2 0.00 0.11 0.10 99 1014.8
20260507045319 61 211 0.9 7.0 0.00 0.11 0.10 99 1015.2
20260507044820 61 207 0.9 7.8 0.00 0.11 0.10 99 1014.9
20260507044319 61 209 2.6 8.7 0.00 0.11 0.10 99 1014.5
20260507043819 61 233 0.9 8.7 0.00 0.11 0.10 99 1014.5
20260507043318 61 0 0.0 7.0 0.00 0.11 0.10 99 1014.5
20260507042824 62 0 0.0 6.1 0.00 0.11 0.10 99 1014.6
20260507041858 62 211 0.9 8.7 0.00 0.11 0.10 99 1014.1
20260507041358 62 214 1.7 8.7 0.01 0.11 0.10 99 1014.1
20260507040858 62 203 1.7 7.8 0.02 0.11 0.10 100 1014.4
20260507040023 62 206 2.6 8.7 0.02 0.11 0.10 99 1014.2
20260507035523 62 209 2.6 7.0 0.03 0.11 0.10 99 1014.3
20260507035023 62 207 0.9 7.8 0.04 0.11 0.10 99 1014.1
20260507034523 62 208 2.6 7.8 0.04 0.11 0.10 99 1014.0
20260507034023 62 203 1.7 7.8 0.04 0.11 0.10 99 1013.8
20260507033535 62 194 3.5 7.8 0.05 0.11 0.10 99 1013.7
20260507033023 62 208 3.5 9.6 0.05 0.11 0.10 99 1013.8
20260507032523 62 189 4.3 14.8 0.05 0.11 0.10 99 1013.8
20260507032024 62 189 4.3 17.4 0.05 0.11 0.10 99 1013.1
20260507031523 62 161 9.6 17.4 0.04 0.10 0.09 99 1013.5
20260507031023 62 0 0.0 5.2 0.03 0.09 0.08 99 1015.4
20260507030523 62 0 0.0 7.0 0.03 0.09 0.08 99 1015.3
20260507030023 62 235 0.9 7.0 0.04 0.09 0.08 99 1015.1
20260507025523 63 0 0.0 9.6 0.03 0.08 0.07 99 1015.1
20260507025023 63 0 0.0 9.6 0.02 0.07 0.06 99 1015.3
20260507024523 63 247 1.7 8.7 0.02 0.07 0.06 99 1015.3
20260507024023 63 207 0.9 8.7 0.03 0.07 0.06 99 1015.4
20260507023524 63 196 1.7 8.7 0.02 0.06 0.05 99 1015.3
20260507023023 63 197 1.7 13.9 0.02 0.06 0.05 99 1015.1
20260507022523 63 187 4.3 13.9 0.02 0.06 0.05 99 1014.7
20260507022023 63 189 2.6 13.0 0.02 0.06 0.05 99 1014.3
20260507021523 63 210 1.7 9.6 0.02 0.06 0.05 99 1014.2
20260507021023 63 208 4.3 9.6 0.02 0.06 0.05 99 1014.2
20260507020523 63 198 0.9 7.8 0.02 0.06 0.05 99 1014.2
20260507020023 63 200 1.7 7.8 0.01 0.05 0.04 99 1014.2
20260507015523 63 216 1.7 7.8 0.02 0.05 0.04 99 1014.4
20260507015023 63 218 0.9 10.4 0.02 0.05 0.04 99 1014.6
20260507014523 63 201 2.6 10.4 0.02 0.05 0.04 99 1014.4
20260507014023 62 193 2.6 10.4 0.01 0.04 0.03 99 1014.3
20260507013525 62 201 3.5 8.7 0.01 0.04 0.03 99 1014.1
20260507013023 62 196 2.6 7.8 0.01 0.04 0.03 99 1014.0
20260507012523 62 208 3.5 7.8 0.01 0.04 0.03 98 1014.1
20260507012023 62 202 4.3 8.7 0.01 0.04 0.03 98 1013.8
20260507011523 62 201 2.6 8.7 0.01 0.04 0.03 98 1013.8
20260507011024 62 189 3.5 7.8 0.01 0.04 0.03 98 1013.4
20260507010034 63 197 3.5 10.4 0.01 0.04 0.03 98 1013.8
20260507005536 62 202 3.5 7.8 0.00 0.03 0.02 97 1013.9
20260507005034 62 194 4.3 7.8 0.00 0.03 0.02 97 1014.0
20260507004534 63 202 2.6 8.7 0.00 0.03 0.02 97 1014.2
20260507004035 63 199 4.3 8.7 0.00 0.03 0.02 97 1014.0
20260507003534 63 202 3.5 9.6 0.00 0.03 0.02 96 1013.9
20260507003034 63 195 3.5 9.6 0.00 0.03 0.02 96 1014.0
20260507002534 63 198 2.6 7.8 0.00 0.03 0.02 96 1014.2
20260507002034 63 201 1.7 7.8 0.00 0.03 0.02 96 1014.1
20260507001534 63 202 3.5 8.7 0.00 0.03 0.02 95 1013.8
20260507001034 63 202 3.5 8.7 0.00 0.03 0.02 95 1013.9
20260507000535 63 202 3.5 7.8 0.00 0.03 0.02 95 1013.9
20260507000034 63 194 3.5 7.0 0.00 0.03 0.02 95 1013.7
20260506235534 63 192 3.5 7.8 0.00 0.03 0.02 95 1013.8
20260506235034 63 200 3.5 7.8 0.00 0.03 0.02 94 1013.9
20260506234535 63 196 2.6 6.1 0.00 0.03 0.02 94 1013.9
20260506233534 63 197 2.6 7.8 0.00 0.03 0.02 94 1013.8
20260506233033 63 197 1.7 9.6 0.00 0.03 0.02 94 1013.6
20260506232533 63 198 3.5 9.6 0.00 0.03 0.02 94 1013.2
20260506232034 63 195 5.2 9.6 0.00 0.03 0.02 94 1013.0
20260506231111 63 197 4.3 8.7 0.00 0.03 0.02 93 1013.5
20260506230612 63 202 3.5 8.7 0.00 0.03 0.02 93 1013.6
20260506230110 63 193 5.2 8.7 0.00 0.03 0.02 93 1013.3
20260506225611 63 191 4.3 7.8 0.00 0.03 0.02 93 1013.4
20260506225107 63 195 3.5 7.8 0.00 0.03 0.02 93 1013.5
20260506224439 64 200 0.9 7.0 0.00 0.03 0.02 92 1014.1
20260506223938 64 185 1.7 7.0 0.00 0.03 0.02 92 1014.1
20260506223438 64 197 0.9 7.0 0.00 0.03 0.02 92 1014.4
20260506222938 64 195 1.7 10.4 0.00 0.03 0.02 92 1014.6
20260506222438 64 192 3.5 12.2 0.00 0.03 0.02 92 1014.4
20260506221938 64 200 4.3 12.2 0.00 0.03 0.02 92 1014.4
20260506221438 64 199 4.3 9.6 0.00 0.03 0.02 92 1014.2
20260506220938 64 200 3.5 9.6 0.00 0.03 0.02 92 1014.2
20260506220438 64 197 3.5 7.0 0.00 0.03 0.02 92 1014.3
20260506215938 64 199 3.5 7.8 0.00 0.03 0.02 92 1014.0
20260506215438 64 195 2.6 7.8 0.00 0.03 0.02 92 1014.1
20260506214938 64 199 1.7 7.0 0.00 0.03 0.02 92 1014.1
20260506214438 64 193 0.9 6.1 0.00 0.03 0.02 91 1014.3
20260506213838 64 219 0.9 7.0 0.00 0.03 0.02 91 1014.3
20260506213337 64 0 0.0 4.3 0.00 0.03 0.02 92 1013.9
20260506212837 64 0 0.0 7.8 0.00 0.03 0.02 92 1013.8
20260506212337 64 196 2.6 8.7 0.00 0.03 0.02 91 1013.8
20260506211837 64 197 3.5 8.7 0.00 0.03 0.02 91 1013.4
20260506211337 64 199 2.6 7.8 0.00 0.03 0.02 91 1013.4
20260506210837 64 200 3.5 12.2 0.00 0.03 0.02 91 1013.2
20260506210337 64 199 2.6 13.0 0.00 0.03 0.02 91 1013.2
20260506205837 64 187 2.6 14.8 0.00 0.03 0.02 91 1013.5
20260506205337 64 196 4.3 14.8 0.00 0.03 0.02 91 1013.5
20260506204837 64 204 4.3 13.0 0.00 0.03 0.02 92 1013.7
20260506204337 64 201 4.3 13.0 0.00 0.03 0.02 92 1013.7
20260506203837 64 196 7.0 16.5 0.00 0.03 0.02 91 1013.7
20260506203337 64 192 7.0 16.5 0.00 0.03 0.02 91 1013.7
20260506202837 64 197 7.8 13.0 0.00 0.03 0.02 92 1013.8
20260506202115 64 202 5.2 13.9 0.00 0.03 0.02 92 1013.8
20260506201612 64 196 4.3 13.9 0.00 0.03 0.02 93 1014.0
20260506201112 63 193 6.1 13.9 0.00 0.03 0.02 92 1013.9
20260506200437 63 196 7.0 15.6 0.00 0.03 0.02 93 1014.0
20260506195938 63 199 4.3 19.1 0.00 0.03 0.02 93 1014.0
20260506195438 63 200 7.0 19.1 0.00 0.03 0.02 94 1014.0
20260506194937 63 198 4.3 13.9 0.00 0.03 0.02 94 1013.9
20260506194437 62 199 4.3 13.9 0.00 0.03 0.02 95 1013.8
20260506193937 62 198 5.2 10.4 0.00 0.03 0.02 95 1013.7
20260506193437 62 209 2.6 12.2 0.00 0.03 0.02 95 1013.7
20260506192937 62 200 3.5 20.9 0.00 0.03 0.02 95 1013.8
20260506192437 62 200 5.2 20.9 0.00 0.03 0.02 95 1014.1
20260506191937 61 200 7.0 18.2 0.00 0.03 0.02 96 1014.0
20260506191438 61 199 6.1 18.2 0.00 0.03 0.02 96 1013.9
20260506190937 61 191 4.3 16.5 0.00 0.03 0.02 96 1013.9
20260506190441 61 198 6.1 15.6 0.00 0.03 0.02 97 1013.9
20260506185537 60 194 11.3 26.1 0.00 0.03 0.02 97 1013.5
20260506185037 60 193 11.3 22.6 0.00 0.03 0.02 97 1013.6
20260506184537 60 185 11.3 25.2 0.00 0.03 0.02 98 1013.3
20260506184037 60 196 13.0 25.2 0.01 0.03 0.02 98 1013.2
20260506183539 60 192 12.2 21.7 0.01 0.03 0.02 98 1013.3
20260506183037 59 194 7.8 17.4 0.01 0.03 0.02 98 1013.5
20260506182539 60 189 8.7 13.9 0.01 0.03 0.02 98 1013.4
20260506182037 60 181 5.2 9.6 0.02 0.03 0.02 99 1013.8
20260506181537 59 187 1.7 8.7 0.02 0.03 0.02 98 1013.6
20260506181037 59 178 0.9 8.7 0.02 0.03 0.02 98 1013.4
20260506180537 59 177 4.3 8.7 0.02 0.03 0.02 98 1013.5
20260506180037 58 182 5.2 8.7 0.02 0.03 0.02 98 1013.7
20260506175537 58 183 1.7 7.0 0.02 0.03 0.02 98 1014.2
20260506174505 58 197 6.1 13.0 0.02 0.03 0.02 97 1015.0
20260506174007 58 194 5.2 9.6 0.01 0.02 0.01 97 1015.4
20260506173505 58 199 3.5 9.6 0.01 0.02 0.01 97 1015.5
20260506173005 58 182 2.6 9.6 0.01 0.02 0.01 96 1015.3
20260506172505 58 198 2.6 7.8 0.01 0.02 0.01 96 1015.6
20260506172005 58 201 2.6 7.0 0.00 0.01 0.00 95 1015.8
20260506171505 58 199 0.9 7.0 0.00 0.01 0.00 95 1015.8
20260506171006 58 0 0.0 7.0 0.00 0.01 0.00 94 1015.8
20260506170506 59 0 0.0 7.0 0.00 0.01 0.00 94 1015.8
20260506170005 59 186 2.6 8.7 0.00 0.01 0.00 94 1015.8
20260506165505 59 203 3.5 8.7 0.00 0.01 0.00 92 1015.7
20260506165006 59 189 3.5 10.4 0.00 0.01 0.00 92 1015.6
20260506164505 59 187 3.5 15.6 0.01 0.01 0.00 93 1015.7
20260506164005 58 195 7.0 15.6 0.01 0.01 0.00 93 1015.7
20260506163505 58 192 6.1 14.8 0.01 0.01 0.00 93 1015.6
20260506163006 58 193 3.5 14.8 0.01 0.01 0.00 94 1015.6
20260506162505 57 202 7.8 13.9 0.01 0.01 0.00 94 1015.6
20260506162005 57 197 7.0 13.0 0.01 0.01 0.00 94 1015.5
20260506161505 57 196 5.2 13.9 0.01 0.01 0.00 94 1015.4
20260506161005 57 196 7.0 15.6 0.01 0.01 0.00 94 1015.6
20260506160505 57 199 8.7 15.6 0.01 0.01 0.00 95 1015.4
20260506160005 57 197 5.2 11.3 0.01 0.01 0.01 94 1015.4
20260506155505 57 197 6.1 11.3 0.01 0.01 0.01 94 1015.4
20260506155005 57 199 6.1 13.0 0.01 0.01 0.01 94 1015.2
20260506154505 57 198 2.6 13.0 0.00 0.00 0.00 94 1015.1
20260506153448 57 195 4.3 9.6 0.00 0.00 0.00 94 1014.7
20260506152154 57 195 2.6 11.3 0.00 0.00 0.00 93 1014.8
20260506151654 57 194 1.7 11.3 0.00 0.00 0.00 93 1014.9
20260506151154 57 201 2.6 8.7 0.00 0.00 0.00 93 1014.9
20260506150654 57 200 1.7 7.0 0.00 0.00 0.00 93 1015.1
20260506150154 57 193 3.5 9.6 0.00 0.00 0.00 92 1014.9
20260506145654 58 189 1.7 13.9 0.00 0.00 0.00 91 1015.0
20260506145155 58 195 3.5 13.9 0.00 0.00 0.00 90 1015.0
20260506144726 58 193 3.5 13.0 0.00 0.00 0.00 89 1014.9
20260506144654 58 193 3.5 13.0 0.00 0.00 0.00 89 1014.9
20260506144155 58 201 7.8 12.2 0.00 0.00 0.00 89 1014.7
20260506143654 58 198 3.5 9.6 0.00 0.00 0.00 90 1014.7
20260506143155 58 195 6.1 9.6 0.00 0.00 0.00 90 1014.6
20260506142654 58 193 2.6 7.0 0.00 0.00 0.00 89 1014.6
20260506142155 58 192 1.7 6.1 0.00 0.00 0.00 88 1014.3
20260506141654 58 202 1.7 5.2 0.00 0.00 0.00 88 1014.7
20260506141155 58 0 0.0 7.0 0.00 0.00 0.00 88 1014.7
20260506140654 58 200 2.6 8.7 0.00 0.00 0.00 88 1014.9
20260506140155 58 199 1.7 8.7 0.00 0.00 0.00 89 1014.8
20260506135654 58 195 0.9 10.4 0.00 0.00 0.00 89 1014.7
20260506135155 58 193 4.3 10.4 0.00 0.00 0.00 89 1014.7
20260506134654 58 198 2.6 8.7 0.00 0.00 0.00 88 1014.8
20260506134021 58 195 3.5 9.6 0.00 0.00 0.00 88 1014.5
20260506133525 58 196 4.3 8.7 0.00 0.00 0.00 88 1014.4
20260506133021 58 183 2.6 11.3 0.00 0.00 0.00 88 1014.3
20260506132521 57 197 3.5 11.3 0.00 0.00 0.00 88 1014.4
20260506132021 57 203 6.1 17.4 0.00 0.00 0.00 89 1014.4
20260506131524 57 194 3.5 17.4 0.00 0.00 0.00 89 1014.5
20260506131025 57 190 6.1 17.4 0.00 0.00 0.00 89 1014.8
20260506130527 56 199 7.0 13.9 0.00 0.00 0.00 89 1014.7
20260506130021 56 195 1.7 10.4 0.00 0.00 0.00 89 1014.5
20260506125523 56 196 2.6 10.4 0.00 0.00 0.00 89 1014.7
20260506125021 56 191 2.6 7.8 0.00 0.00 0.00 90 1014.6
20260506124454 56 201 5.2 7.8 0.00 0.00 0.00 89 1014.6
20260506123955 56 198 1.7 8.7 0.00 0.00 0.00 90 1014.6
20260506123455 56 188 1.7 10.4 0.00 0.00 0.00 90 1014.4
20260506122955 56 191 0.9 13.0 0.00 0.00 0.00 90 1014.2
20260506122528 56 183 4.3 13.0 0.00 0.00 0.00 89 1014.0
20260506122454 56 183 4.3 13.0 0.00 0.00 0.00 89 1014.0
20260506121954 56 200 7.0 12.2 0.00 0.00 0.00 89 1014.3
20260506121454 56 197 6.1 11.3 0.00 0.00 0.00 89 1014.6
20260506120955 56 199 5.2 13.9 0.00 0.00 0.00 89 1015.0
20260506120454 56 199 6.1 14.8 0.00 0.00 0.00 89 1014.8
20260506115954 56 200 7.8 18.2 0.00 0.00 0.00 89 1014.8
20260506115454 56 198 9.6 18.2 0.00 0.00 0.00 89 1014.5
20260506114954 56 194 5.2 14.8 0.00 0.00 0.00 89 1014.5
20260506114455 56 196 7.8 16.5 0.00 0.00 0.00 89 1014.4
20260506113955 56 196 8.7 16.5 0.00 0.00 0.00 89 1014.3
20260506113454 56 201 9.6 16.5 0.00 0.00 0.00 89 1014.1
20260506112957 56 192 8.7 19.1 0.00 0.00 0.00 89 1013.9
20260506112455 56 196 9.6 21.7 0.00 0.00 0.00 89 1013.8
20260506111954 56 188 10.4 24.3 0.00 0.00 0.00 89 1014.0
20260506111535 56 194 12.2 24.3 0.00 0.00 0.00 89 1013.8
20260506111457 56 194 12.2 24.3 0.00 0.00 0.00 89 1013.8
20260506111036 56 186 12.2 19.1 0.00 0.00 0.00 89 1013.6
20260506110958 56 186 12.2 19.1 0.00 0.00 0.00 89 1013.6
20260506105649 56 198 7.8 19.1 0.00 0.00 0.00 88 1013.6
20260506105155 56 199 11.3 19.1 0.00 0.00 0.00 89 1013.8
20260506104650 56 200 9.6 18.2 0.00 0.00 0.00 88 1013.9
20260506104149 56 195 8.7 22.6 0.00 0.00 0.00 88 1013.8
20260506103649 56 198 11.3 22.6 0.00 0.00 0.00 88 1013.7
20260506103149 56 193 7.0 16.5 0.00 0.00 0.00 88 1013.9
20260506102649 56 201 7.8 16.5 0.00 0.00 0.00 88 1013.6
20260506102149 56 199 8.7 16.5 0.00 0.00 0.00 88 1013.4
20260506101649 56 196 9.6 16.5 0.00 0.00 0.00 88 1013.5
20260506101150 56 195 7.8 26.1 0.00 0.00 0.00 88 1013.5
20260506100649 56 194 9.6 26.1 0.00 0.00 0.00 88 1013.4
20260506100150 56 197 8.7 16.5 0.00 0.00 0.00 88 1013.6
20260506095649 56 199 8.7 18.2 0.00 0.00 0.00 88 1013.4
20260506095149 56 189 9.6 18.2 0.00 0.00 0.00 88 1013.5
20260506094649 57 198 10.4 18.2 0.00 0.00 0.00 88 1013.5
20260506094149 57 196 7.8 17.4 0.00 0.00 0.00 88 1013.6
20260506093649 57 191 7.0 17.4 0.00 0.00 0.00 87 1013.6
20260506093149 57 196 7.8 13.9 0.00 0.00 0.00 87 1013.5
20260506092649 57 197 7.8 13.9 0.00 0.00 0.00 87 1013.4
20260506092149 57 196 7.0 14.8 0.00 0.00 0.00 87 1013.6
20260506091649 57 198 7.8 14.8 0.00 0.00 0.00 87 1013.7
20260506091149 57 197 7.0 15.6 0.00 0.00 0.00 87 1013.6
20260506090650 57 196 7.0 15.6 0.00 0.00 0.00 87 1013.8
20260506090149 57 198 7.0 13.9 0.00 0.00 0.00 87 1013.7
20260506085649 57 200 7.8 13.0 0.00 0.00 0.00 86 1013.9
20260506084621 57 191 6.1 13.0 0.00 0.00 0.00 86 1013.9
20260506083838 57 192 6.1 13.9 0.00 0.00 0.00 86 1014.0
20260506083339 57 193 7.8 13.9 0.00 0.00 0.00 86 1013.8
20260506082838 57 194 7.0 13.0 0.00 0.00 0.00 85 1013.8
20260506082338 57 195 7.0 14.8 0.00 0.00 0.00 85 1014.0
20260506081839 57 185 7.0 14.8 0.00 0.00 0.00 85 1013.9
20260506081338 58 196 7.8 14.8 0.00 0.00 0.00 84 1013.9
20260506080839 58 186 7.8 15.6 0.00 0.00 0.00 84 1013.9
20260506080338 58 200 9.6 16.5 0.00 0.00 0.00 84 1013.9
20260506073338 58 187 7.0 15.6 0.00 0.00 0.00 83 1014.3
20260506072838 58 198 7.8 15.6 0.00 0.00 0.00 83 1014.3
20260506072338 58 194 7.8 15.6 0.00 0.00 0.00 82 1014.2
20260506071839 58 192 7.0 19.1 0.00 0.00 0.00 82 1014.1
20260506071339 58 198 8.7 26.1 0.00 0.00 0.00 82 1013.9
20260506070841 58 190 11.3 26.9 0.00 0.00 0.00 81 1014.0
20260506070338 58 197 8.7 26.9 0.00 0.00 0.00 81 1014.1
20260506062338 59 191 9.6 17.4 0.00 0.00 0.00 79 1014.6
20260506061838 59 190 8.7 20.0 0.00 0.00 0.00 79 1014.4
20260506061338 59 187 9.6 20.0 0.00 0.00 0.00 78 1014.5
20260506060838 59 194 9.6 18.2 0.00 0.00 0.00 78 1014.5
20260506060338 59 188 7.8 18.2 0.00 0.00 0.00 77 1014.4